Location: Unspecified
(0.0000°N, 0.0000°E)
Time: 19:04:00
(UTC+00:00)

SR - Pass Details

Date: 20 November 2019
Orbit: 573 x 882 km, 66.7° (Epoch: 08 December)

Event Time Altitude Azimuth Distance (km) Brightness Sun altitude
Rises 23:30:55 0° 14° (NNE) 3,374 - -69.9°
Reaches altitude 10° 23:34:54 10° 41° (NE) 2,383 - -70.0°
Maximum altitude 23:37:18 13° 67° (ENE) 2,141 - -70.1°
Drops below altitude 10° 23:39:39 10° 94° (E) 2,300 - -70.1°
Sets 23:43:19 0° 122° (ESE) 3,151 - -70.2°
